Location: Dodgeville
(42.9600°N, 90.1300°W)
Time: 00:22:04
(UTC-05:00)

Amateur Radio Satellites - All Passes

Search period start: 31 October 2014 23:52
Search period end: 01 November 2014 23:52
Location: Dodgeville, 42.9600°N, 90.1300°W

Satellite Date Start Highest point End Downlink Frequencies (MHz)
Time Altitude Azimuth
FUNcube-1 31 Oct 23:56:43 23:58:33 12° 270° (W) 00:00:22 145.950 - 145.970 MHz USB
PCSat 01 Nov 01:15:59 01:19:11 16° 104° (ESE) 01:22:24 145.825 MHz
JAS-1B 01 Nov 01:16:03 01:21:25 21° 92° (E) 01:27:21 435.800 - 435.900 CW/SSB
RS-15 01 Nov 01:19:20 01:27:50 25° 347° (NNW) 01:36:29 29.354 - 29.394 USB, Beacon 29.352 USB
Oscar 19 01 Nov 01:33:43 01:37:19 19° 92° (E) 01:40:55 437.125 CW, 437.150 USB
AO-27 01 Nov 02:11:33 02:15:02 18° 91° (E) 02:18:30 436.795 MHz FM
Oscar 16 01 Nov 02:19:52 02:24:53 52° 100° (E) 02:29:52 437.025 USB, Beacon 2401.1428
Gurwin Techsat 1B 01 Nov 02:30:38 02:33:29 15° 89° (E) 02:36:19 435.225 FM
Sapphire 01 Nov 02:34:57 02:40:19 71° 117° (ESE) 02:45:44 437.095 MHz 1200 baud AX-25 AFSK
TMSAT-1 01 Nov 02:37:22 02:39:20 12° 88° (E) 02:41:18 436.925 FM
AO-Echo 01 Nov 02:50:13 02:55:27 55° 100° (E) 03:00:36 ?
Uribyol 2 01 Nov 02:53:54 02:58:54 45° 99° (E) 03:03:51 436.500 FM
PCSat 01 Nov 02:56:32 03:01:56 74° 302° (WNW) 03:07:23 145.825 MHz
ITAMSAT 1 01 Nov 03:01:58 03:07:04 51° 100° (E) 03:12:06 435.822 SSB
JAS-1B 01 Nov 03:05:17 03:12:25 81° 287° (WNW) 03:20:58 435.800 - 435.900 CW/SSB
Oscar 19 01 Nov 03:12:00 03:16:59 54° 289° (WNW) 03:21:57 437.125 CW, 437.150 USB
RS-15 01 Nov 03:35:54 03:45:07 29° 23° (NNE) 03:54:33 29.354 - 29.394 USB, Beacon 29.352 USB
AO-27 01 Nov 03:49:47 03:54:56 59° 288° (WNW) 04:00:02 436.795 MHz FM
Oscar 16 01 Nov 04:00:06 04:03:52 21° 297° (WNW) 04:07:37 437.025 USB, Beacon 2401.1428
Gurwin Techsat 1B 01 Nov 04:08:41 04:14:00 74° 286° (WNW) 04:19:17 435.225 FM
TMSAT-1 01 Nov 04:14:36 04:19:56 86° 285° (WNW) 04:25:14 436.925 FM
Sapphire 01 Nov 04:20:09 04:24:17 22° 317° (NW) 04:28:26 437.095 MHz 1200 baud AX-25 AFSK
OPAL 01 Nov 04:20:56 04:25:06 26° 63° (ENE) 04:29:14 ?
AO-Echo 01 Nov 04:29:50 04:33:47 22° 297° (WNW) 04:37:43 ?
Uribyol 2 01 Nov 04:33:58 04:38:05 24° 296° (WNW) 04:42:11 436.500 FM
ITAMSAT 1 01 Nov 04:42:14 04:46:11 22° 297° (WNW) 04:50:07 435.822 SSB
Uosat F 01 Nov 04:42:47 04:46:57 25° 95° (E) 04:51:05 435.120 FM
PCSat 01 Nov 04:43:11 04:46:20 15° 323° (NW) 04:49:30 145.825 MHz
JAS-2 01 Nov 04:48:19 04:52:33 15° 84° (E) 04:56:41 435.800 - 435.900 CW/SSB, 435.910 FM
AO-7 01 Nov 04:51:04 04:59:01 46° 100° (E) 05:06:54 29.400 - 29.500 MHz
JAS-1B 01 Nov 04:57:56 05:02:15 17° 303° (WNW) 05:06:59 435.800 - 435.900 CW/SSB
RS-15 01 Nov 05:48:46 05:59:55 70° 52° (NE) 06:11:32 29.354 - 29.394 USB, Beacon 29.352 USB
Gurwin Techsat 1B 01 Nov 05:51:42 05:53:02 11° 304° (NW) 05:54:22 435.225 FM
Saudisat 1A 01 Nov 05:56:16 06:00:36 66° 121° (ESE) 06:04:59 436.775 MHz
TMSAT-1 01 Nov 05:56:47 05:59:02 13° 303° (WNW) 06:01:18 436.925 FM
OPAL 01 Nov 05:58:57 06:03:46 41° 259° (W) 06:08:33 ?
STRAND 1 01 Nov 06:17:45 06:22:27 37° 68° (ENE) 06:27:10 ?
Uosat F 01 Nov 06:21:09 06:25:50 40° 292° (WNW) 06:30:30 435.120 FM
JAS-2 01 Nov 06:30:48 06:38:44 77° 103° (ESE) 06:46:20 435.800 - 435.900 CW/SSB, 435.910 FM
AO-7 01 Nov 06:44:01 06:51:44 44° 299° (WNW) 06:59:27 29.400 - 29.500 MHz
Hamsat 01 Nov 07:02:04 07:06:18 79° 284° (WNW) 07:10:33 145.90 MHz
SO-67 01 Nov 07:20:42 07:23:12 19° 94° (E) 07:25:41 435.3500 MHz FM
Saudisat 1A 01 Nov 07:37:28 07:40:36 19° 320° (NW) 07:43:44 436.775 MHz
STRAND 1 01 Nov 07:57:19 08:01:41 28° 265° (W) 08:06:06 ?
RS-15 01 Nov 08:01:50 08:11:33 36° 253° (WSW) 08:21:39 29.354 - 29.394 USB, Beacon 29.352 USB
MaSat-1 01 Nov 08:06:54 08:09:06 29° 249° (WSW) 08:11:12 437.345 MHz
JAS-2 01 Nov 08:16:47 08:22:56 26° 302° (WNW) 08:29:00 435.800 - 435.900 CW/SSB, 435.910 FM
HO-68 01 Nov 08:22:00 08:24:40 12° 86° (E) 08:27:18 435.675 MHz FM
AO-7 01 Nov 08:40:38 08:42:21 11° 322° (NW) 08:44:05 29.400 - 29.500 MHz
SO-67 01 Nov 08:53:16 08:56:09 25° 290° (WNW) 08:59:01 435.3500 MHz FM
Sapphire 01 Nov 09:40:06 09:43:02 15° 36° (NE) 09:45:58 437.095 MHz 1200 baud AX-25 AFSK
Oscar 11 01 Nov 09:47:32 09:50:22 17° 92° (E) 09:53:11 145.825 FM, Beacon 2401.500 USB
KITSAT 1 01 Nov 09:58:53 10:05:36 30° 106° (ESE) 10:12:19 435.175 FM
PCSat 01 Nov 10:01:04 10:05:04 20° 42° (NE) 10:09:03 145.825 MHz
SO-50 01 Nov 10:01:07 10:03:02 13° 107° (ESE) 10:04:59 436.795 FM
HO-68 01 Nov 10:06:19 10:13:32 73° 105° (ESE) 10:20:42 435.675 MHz FM
FUNcube-1 01 Nov 10:08:02 10:09:10 11° 89° (E) 10:10:18 145.950 - 145.970 MHz USB
ISS 01 Nov 10:25:51 10:29:09 75° 145° (SE) 10:32:29 145.800 FM
UKube-1 01 Nov 10:48:17 10:52:40 78° 103° (ESE) 10:57:01 145.840 MHz, 145.915 MHz
ZACube-1 01 Nov 10:59:18 11:03:18 42° 98° (E) 11:07:14 437.345 MHz
Sapphire 01 Nov 11:22:04 11:27:31 68° 57° (ENE) 11:32:54 437.095 MHz 1200 baud AX-25 AFSK
Oscar 11 01 Nov 11:22:39 11:26:46 44° 288° (WNW) 11:30:51 145.825 FM, Beacon 2401.500 USB
SO-50 01 Nov 11:38:24 11:42:54 76° 305° (NW) 11:47:34 436.795 FM
FUNcube-1 01 Nov 11:41:51 11:46:00 63° 286° (WNW) 11:50:06 145.950 - 145.970 MHz USB
PCSat 01 Nov 11:43:40 11:49:06 77° 242° (WSW) 11:54:30 145.825 MHz
KITSAT 1 01 Nov 11:52:25 12:00:26 66° 306° (NW) 12:08:29 435.175 FM
HO-68 01 Nov 11:55:03 12:00:34 25° 304° (WNW) 12:06:04 435.675 MHz FM
Oscar 16 01 Nov 12:02:28 12:04:17 12° 57° (ENE) 12:06:06 437.025 USB, Beacon 2401.1428
ISS 01 Nov 12:03:17 12:06:07 25° 343° (NNW) 12:08:58 145.800 FM
JAS-1B 01 Nov 12:06:18 12:09:07 14° 55° (NE) 12:11:58 435.800 - 435.900 CW/SSB
UOSAT-12 01 Nov 12:17:17 12:21:15 28° 114° (ESE) 12:25:16 437.025 FM, 437.400 FM
UKube-1 01 Nov 12:26:42 12:28:13 12° 300° (WNW) 12:29:44 145.840 MHz, 145.915 MHz
AO-Echo 01 Nov 12:29:55 12:31:01 11° 56° (NE) 12:32:07 ?
ZACube-1 01 Nov 12:36:35 12:39:23 18° 296° (WNW) 12:42:08 437.345 MHz
Uribyol 2 01 Nov 12:37:46 12:39:11 11° 56° (NE) 12:40:35 436.500 FM
Saudisat 1A 01 Nov 12:44:06 12:46:05 13° 34° (NE) 12:48:04 436.775 MHz
ITAMSAT 1 01 Nov 12:45:17 12:47:20 12° 57° (ENE) 12:49:24 435.822 SSB
Oscar 19 01 Nov 12:51:15 12:55:43 31° 66° (ENE) 13:00:11 437.125 CW, 437.150 USB
Sapphire 01 Nov 13:06:49 13:10:21 18° 255° (WSW) 13:13:53 437.095 MHz 1200 baud AX-25 AFSK
SO-50 01 Nov 13:21:46 13:24:18 14° 326° (NW) 13:26:52 436.795 FM
AO-27 01 Nov 13:30:13 13:34:44 31° 66° (ENE) 13:39:17 436.795 MHz FM
Oscar 16 01 Nov 13:37:40 13:42:49 83° 75° (ENE) 13:47:59 437.025 USB, Beacon 2401.1428
ISS 01 Nov 13:41:12 13:43:37 18° 4° (N) 13:46:02 145.800 FM
KITSAT 1 01 Nov 13:51:38 13:57:32 21° 331° (NNW) 14:03:27 435.175 FM
Gurwin Techsat 1B 01 Nov 13:52:04 13:56:24 26° 64° (ENE) 14:00:46 435.225 FM
JAS-1B 01 Nov 13:53:13 13:58:58 85° 255° (WSW) 14:04:46 435.800 - 435.900 CW/SSB
UOSAT-12 01 Nov 13:56:54 14:01:15 38° 312° (NW) 14:05:41 437.025 FM, 437.400 FM
TMSAT-1 01 Nov 13:58:06 14:02:07 23° 63° (ENE) 14:06:09 436.925 FM
AO-7 01 Nov 14:03:03 14:07:42 17° 45° (NE) 14:12:20 29.400 - 29.500 MHz
AO-Echo 01 Nov 14:03:49 14:08:49 75° 74° (ENE) 14:14:00 ?
Uribyol 2 01 Nov 14:12:32 14:17:45 76° 74° (ENE) 14:22:59 436.500 FM
ITAMSAT 1 01 Nov 14:20:47 14:26:00 84° 75° (ENE) 14:31:16 435.822 SSB
Saudisat 1A 01 Nov 14:22:03 14:26:29 68° 54° (NE) 14:30:53 436.775 MHz
Oscar 19 01 Nov 14:30:21 14:34:59 34° 263° (W) 14:39:37 437.125 CW, 437.150 USB
AO-27 01 Nov 15:09:23 15:14:09 35° 263° (W) 15:18:57 436.795 MHz FM
ISS 01 Nov 15:17:52 15:21:00 36° 23° (NNE) 15:24:07 145.800 FM
Oscar 16 01 Nov 15:20:53 15:22:48 12° 272° (W) 15:24:43 437.025 USB, Beacon 2401.1428
Gurwin Techsat 1B 01 Nov 15:31:06 15:36:08 43° 262° (W) 15:41:12 435.225 FM
TMSAT-1 01 Nov 15:36:31 15:41:40 52° 260° (W) 15:46:52 436.925 FM
AO-Echo 01 Nov 15:45:46 15:48:11 13° 272° (W) 15:50:38 ?
AO-7 01 Nov 15:50:48 15:58:56 66° 66° (ENE) 16:07:07 29.400 - 29.500 MHz
KITSAT 1 01 Nov 15:53:16 15:56:44 13° 1° (N) 16:00:12 435.175 FM
Uribyol 2 01 Nov 15:55:10 15:57:47 14° 271° (W) 16:00:24 436.500 FM
Uosat F 01 Nov 15:56:44 16:01:23 39° 68° (ENE) 16:06:03 435.120 FM
Saudisat 1A 01 Nov 16:03:17 16:05:29 14° 251° (WSW) 16:07:41 436.775 MHz
ITAMSAT 1 01 Nov 16:04:07 16:06:08 12° 272° (W) 16:08:11 435.822 SSB
JAS-2 01 Nov 16:43:46 16:49:38 38° 63° (ENE) 16:56:09 435.800 - 435.900 CW/SSB, 435.910 FM
ISS 01 Nov 16:54:35 16:57:41 36° 221° (SW) 17:00:47 145.800 FM
Uosat F 01 Nov 17:36:06 17:40:16 26° 265° (W) 17:44:27 435.120 FM
AO-7 01 Nov 17:45:23 17:52:15 29° 265° (W) 17:59:11 29.400 - 29.500 MHz
KITSAT 1 01 Nov 17:49:39 17:55:49 23° 32° (NNE) 18:01:58 435.175 FM
Hamsat 01 Nov 17:55:56 18:00:07 82° 76° (ENE) 18:04:18 145.90 MHz
OPAL 01 Nov 18:07:38 18:12:23 45° 101° (ESE) 18:17:07 ?
JAS-2 01 Nov 18:28:33 18:34:32 43° 265° (W) 18:41:18 435.800 - 435.900 CW/SSB, 435.910 FM
SO-50 01 Nov 18:29:15 18:32:56 21° 40° (NE) 18:36:39 436.795 FM
STRAND 1 01 Nov 18:29:53 18:31:19 11° 88° (E) 18:32:43 ?
HO-68 01 Nov 18:53:13 18:56:07 13° 48° (NE) 18:59:02 435.675 MHz FM
SO-67 01 Nov 19:25:46 19:29:11 70° 259° (W) 19:32:38 435.3500 MHz FM
KITSAT 1 01 Nov 19:44:37 19:52:43 73° 56° (NE) 20:00:47 435.175 FM
OPAL 01 Nov 19:47:09 19:51:00 23° 299° (WNW) 19:54:50 ?
STRAND 1 01 Nov 20:06:00 20:11:11 88° 285° (WNW) 20:16:19 ?
SO-50 01 Nov 20:09:08 20:13:57 68° 239° (WSW) 20:18:48 436.795 FM
RS-15 01 Nov 20:14:26 20:24:10 38° 108° (ESE) 20:33:47 29.354 - 29.394 USB, Beacon 29.352 USB
HO-68 01 Nov 20:35:23 20:42:23 60° 68° (ENE) 20:49:26 435.675 MHz FM
Oscar 11 01 Nov 20:43:59 20:46:39 16° 64° (ENE) 20:49:18 145.825 FM, Beacon 2401.500 USB
UOSAT-12 01 Nov 20:45:31 20:49:51 34° 47° (NE) 20:54:07 437.025 FM, 437.400 FM
FUNcube-1 01 Nov 21:05:17 21:07:09 13° 62° (ENE) 21:09:00 145.950 - 145.970 MHz USB
KITSAT 1 01 Nov 21:41:03 21:47:23 26° 255° (WSW) 21:53:42 435.175 FM
MaSat-1 01 Nov 21:41:34 21:45:06 35° 112° (ESE) 21:48:20 437.345 MHz
UKube-1 01 Nov 21:44:17 21:48:37 75° 74° (ENE) 21:53:00 145.840 MHz, 145.915 MHz
STRAND 1 01 Nov 21:47:25 21:49:35 13° 303° (WNW) 21:51:45 ?
ZACube-1 01 Nov 21:56:17 22:00:30 40° 71° (ENE) 22:04:39 437.345 MHz
Oscar 11 01 Nov 22:18:14 22:22:25 50° 260° (W) 22:26:38 145.825 FM, Beacon 2401.500 USB
HO-68 01 Nov 22:24:35 22:30:29 27° 266° (W) 22:36:26 435.675 MHz FM
RS-15 01 Nov 22:25:00 22:35:52 65° 310° (NW) 22:46:48 29.354 - 29.394 USB, Beacon 29.352 USB
UOSAT-12 01 Nov 22:25:46 22:29:57 32° 245° (WSW) 22:34:04 437.025 FM, 437.400 FM
FUNcube-1 01 Nov 22:38:27 22:42:57 74° 258° (WSW) 22:47:23 145.950 - 145.970 MHz USB
MaSat-1 01 Nov 23:17:58 23:20:31 18° 305° (NW) 23:22:54 437.345 MHz
UKube-1 01 Nov 23:24:43 23:25:19 10° 271° (W) 23:25:55 145.840 MHz, 145.915 MHz
ZACube-1 01 Nov 23:33:42 23:37:02 20° 267° (W) 23:40:20 437.345 MHz
